Starlink 30761

operational
NORAD ID: 58134 Int'l Des: 2023-162 Owner: SPXS Country: US Constellation: starlink
LEOCIRCULAR

关于 Starlink 30761

正在加载描述...

实时位置

正在加载3D地球...

即将过境

高度历史

Altitude vs Time

uPlot chart will show altitude changes over time

两行轨道根数

1 58134U 23162S 25352.02045407 .00000307 00000-0 37775-4 0 9997
2 58134 43.0018 216.9447 0001041 256.2719 103.8007 15.02537776120016
Epoch: Dec 18, 2025 • Age: 14 hours

当前状态

高度 568.6 km
速度 7.58 km/s
星下点 -35.53°S, 141.31°E
发射日期 Oct 22, 2023
运行时间 2.1 years
类型 internet

技术详情

分类 Payload
质量 730.00 kg
干质量 700.00 kg
总质量 730.00 kg
长度 0.30 m
直径 4.10 m
跨度 29.00 m
形状 Box + pan
制造商 SPXS
平台类型 Starlink V2M
阶段状态 In Orbit
所有者/国家 SPXS/US

大型星座

Loading constellations...